ETD551 OMAA-OERK

Flight info

Callsign ETD551
Flight time N/A
Altitude 38000
Route DAXIB Q563 IMGUX P699 RIKET A453 KUKDA P699 ASTAD A453 BHR M556 NARMI N112 GETOT J852 KSA
Aircraft A388/J-SADE2E3FGHIJ3J4J5M1RWXY/LB1D1

Departure

Time 2026-05-08 08:54
Airport Zayed International Airport (OMAA)

Arrival

Time N/A
Airport King Khalid International Airport (OERK)
Time Latitude Longitude Altitude Speed Heading
2026-05-08 08:11 24.44802 54.64222 86 ft 0 kts 74°
2026-05-08 08:39 24.44800 54.64212 86 ft 4 kts 74°
2026-05-08 08:39 24.44792 54.64184 85 ft 4 kts 74°
2026-05-08 08:40 24.44786 54.64161 84 ft 4 kts 65°
2026-05-08 08:40 24.44772 54.64140 85 ft 4 kts 40°
2026-05-08 08:40 24.44753 54.64129 84 ft 4 kts
2026-05-08 08:40 24.44734 54.64131 83 ft 2 kts 345°
2026-05-08 08:41 24.44756 54.64125 85 ft 4 kts 345°
2026-05-08 08:41 24.44763 54.64123 84 ft 0 kts 345°
2026-05-08 08:44 24.44767 54.64121 84 ft 2 kts 345°
2026-05-08 08:45 24.44796 54.64113 84 ft 7 kts 345°
2026-05-08 08:45 24.44830 54.64083 82 ft 7 kts 291°
2026-05-08 08:45 24.44826 54.64035 84 ft 7 kts 243°
2026-05-08 08:45 24.44799 54.63978 86 ft 10 kts 242°
2026-05-08 08:46 24.44766 54.63905 83 ft 11 kts 244°
2026-05-08 08:46 24.44734 54.63822 84 ft 12 kts 248°
2026-05-08 08:46 24.44689 54.63745 85 ft 12 kts 214°
2026-05-08 08:46 24.44615 54.63746 84 ft 12 kts 140°
2026-05-08 08:47 24.44551 54.63831 84 ft 17 kts 128°
2026-05-08 08:47 24.44469 54.63947 86 ft 21 kts 128°
2026-05-08 08:47 24.44369 54.64087 85 ft 25 kts 128°
2026-05-08 08:47 24.44263 54.64237 83 ft 23 kts 128°
2026-05-08 08:48 24.44160 54.64383 84 ft 25 kts 128°
2026-05-08 08:48 24.44048 54.64540 84 ft 24 kts 128°
2026-05-08 08:48 24.43979 54.64638 86 ft 26 kts 128°
2026-05-08 08:48 24.43831 54.64846 84 ft 27 kts 128°
2026-05-08 08:49 24.43722 54.65001 86 ft 25 kts 128°
2026-05-08 08:49 24.43649 54.65104 86 ft 22 kts 128°
2026-05-08 08:49 24.43545 54.65250 85 ft 26 kts 128°
2026-05-08 08:49 24.43431 54.65408 85 ft 20 kts 128°
2026-05-08 08:50 24.43338 54.65537 87 ft 24 kts 128°
2026-05-08 08:50 24.43229 54.65689 85 ft 27 kts 128°
2026-05-08 08:50 24.43121 54.65840 86 ft 20 kts 128°
2026-05-08 08:50 24.43028 54.65972 84 ft 22 kts 128°
2026-05-08 08:51 24.42928 54.66115 87 ft 25 kts 128°
2026-05-08 08:51 24.42822 54.66265 84 ft 25 kts 128°
2026-05-08 08:51 24.42718 54.66413 84 ft 26 kts 128°
2026-05-08 08:51 24.42610 54.66568 85 ft 25 kts 128°
2026-05-08 08:52 24.42512 54.66706 85 ft 19 kts 128°
2026-05-08 08:52 24.42453 54.66774 81 ft 6 kts 180°
2026-05-08 08:52 24.42402 54.66749 82 ft 10 kts 216°
2026-05-08 08:52 24.42342 54.66699 85 ft 12 kts 217°
2026-05-08 08:53 24.42280 54.66647 85 ft 10 kts 217°
2026-05-08 08:53 24.42258 54.66597 85 ft 6 kts 294°
2026-05-08 08:53 24.42280 54.66560 82 ft 0 kts 308°
2026-05-08 08:53 24.42328 54.66493 86 ft 44 kts 308°
2026-05-08 08:54 24.42694 54.65976 86 ft 121 kts 307°
2026-05-08 08:54 24.43318 54.65107 189 ft 159 kts 306°
2026-05-08 08:54 24.44029 54.64136 620 ft 168 kts 306°
2026-05-08 08:54 24.44755 54.63135 1104 ft 168 kts 306°
2026-05-08 08:55 24.45479 54.62143 1562 ft 170 kts 306°
2026-05-08 08:55 24.46210 54.61112 1990 ft 179 kts 305°
2026-05-08 08:55 24.46995 54.59959 2135 ft 197 kts 306°
2026-05-08 08:55 24.47851 54.58720 2248 ft 209 kts 306°
2026-05-08 08:56 24.48764 54.57416 2328 ft 220 kts 307°
2026-05-08 08:56 24.49753 54.56017 2493 ft 244 kts 307°
2026-05-08 08:56 24.50831 54.54497 2910 ft 258 kts 307°
2026-05-08 08:56 24.51931 54.52945 3582 ft 261 kts 307°
2026-05-08 08:57 24.53041 54.51386 4421 ft 260 kts 307°
2026-05-08 08:57 24.54164 54.49797 5139 ft 263 kts 307°
2026-05-08 08:57 24.55303 54.48188 5844 ft 269 kts 307°
2026-05-08 08:57 24.56449 54.46566 6628 ft 270 kts 307°
2026-05-08 08:58 24.57619 54.44912 7330 ft 276 kts 306°
2026-05-08 08:58 24.58801 54.43239 8049 ft 280 kts 306°
2026-05-08 08:58 24.59993 54.41552 8757 ft 285 kts 306°
2026-05-08 08:58 24.61216 54.39820 9488 ft 289 kts 305°
2026-05-08 08:59 24.62467 54.38052 10106 ft 297 kts 305°
2026-05-08 08:59 24.63861 54.36323 10649 ft 308 kts 315°
2026-05-08 08:59 24.65546 54.34864 11277 ft 315 kts 324°
2026-05-08 08:59 24.67415 54.33470 11589 ft 335 kts 324°
2026-05-08 09:00 24.69383 54.31963 11776 ft 355 kts 324°
2026-05-08 09:00 24.71453 54.30362 12062 ft 370 kts 323°
2026-05-08 09:00 24.73578 54.28719 12674 ft 376 kts 324°
2026-05-08 09:00 24.75742 54.27047 13249 ft 383 kts 324°
2026-05-08 09:01 24.77948 54.25345 13824 ft 389 kts 324°
2026-05-08 09:01 24.80170 54.23631 14540 ft 389 kts 324°
2026-05-08 09:01 24.82388 54.21918 15216 ft 390 kts 324°
2026-05-08 09:01 24.84618 54.20196 15870 ft 392 kts 324°
2026-05-08 09:02 24.86838 54.18481 16532 ft 394 kts 324°
2026-05-08 09:02 24.89095 54.16736 17161 ft 396 kts 324°
2026-05-08 09:02 24.91282 54.14879 17786 ft 398 kts 317°
2026-05-08 09:02 24.93201 54.12716 18369 ft 399 kts 310°
2026-05-08 09:03 24.95038 54.10402 18888 ft 401 kts 310°
2026-05-08 09:03 24.96900 54.08096 19398 ft 404 kts 310°
2026-05-08 09:03 24.98787 54.05773 19905 ft 406 kts 310°
2026-05-08 09:03 25.00678 54.03442 20392 ft 409 kts 310°
2026-05-08 09:04 25.02567 54.01111 20890 ft 412 kts 309°
2026-05-08 09:04 25.04482 53.98744 21358 ft 414 kts 309°
2026-05-08 09:04 25.06409 53.96360 21845 ft 417 kts 309°
2026-05-08 09:04 25.08348 53.93959 22312 ft 420 kts 309°
2026-05-08 09:05 25.10302 53.91537 22783 ft 423 kts 309°
2026-05-08 09:05 25.12265 53.89104 23267 ft 425 kts 308°
2026-05-08 09:05 25.14208 53.86693 23676 ft 427 kts 308°
2026-05-08 09:05 25.16190 53.84233 24087 ft 428 kts 308°
2026-05-08 09:06 25.18179 53.81765 24497 ft 430 kts 308°
2026-05-08 09:06 25.20145 53.79264 24903 ft 431 kts 305°
2026-05-08 09:06 25.21865 53.76543 25302 ft 430 kts 298°
2026-05-08 09:06 25.23368 53.73680 25704 ft 431 kts 297°
2026-05-08 09:07 25.24874 53.70845 26135 ft 433 kts 297°
2026-05-08 09:07 25.26415 53.67968 26567 ft 435 kts 297°
2026-05-08 09:07 25.27969 53.65065 26998 ft 438 kts 297°
2026-05-08 09:07 25.29501 53.62199 27495 ft 439 kts 297°
2026-05-08 09:08 25.31063 53.59273 27996 ft 441 kts 296°
2026-05-08 09:08 25.32633 53.56325 28470 ft 444 kts 296°
2026-05-08 09:08 25.34203 53.53375 28967 ft 447 kts 296°
2026-05-08 09:08 25.35785 53.50401 29481 ft 450 kts 296°
2026-05-08 09:09 25.37363 53.47433 29963 ft 454 kts 296°
2026-05-08 09:09 25.38968 53.44411 30416 ft 457 kts 296°
2026-05-08 09:09 25.40587 53.41362 30863 ft 459 kts 296°
2026-05-08 09:09 25.42216 53.38292 31306 ft 462 kts 296°
2026-05-08 09:10 25.43831 53.35245 31740 ft 466 kts 296°
2026-05-08 09:10 25.45479 53.32137 32188 ft 468 kts 295°
2026-05-08 09:10 25.47131 53.29016 32627 ft 471 kts 295°
2026-05-08 09:10 25.48660 53.25809 33038 ft 471 kts 290°
2026-05-08 09:11 25.49878 53.22444 33463 ft 470 kts 284°
2026-05-08 09:11 25.50786 53.18967 33880 ft 469 kts 278°
2026-05-08 09:11 25.51482 53.15465 34236 ft 472 kts 278°
2026-05-08 09:11 25.52209 53.11905 34630 ft 474 kts 278°
2026-05-08 09:12 25.52946 53.08335 35115 ft 474 kts 278°
2026-05-08 09:12 25.53680 53.04780 35652 ft 473 kts 278°
2026-05-08 09:12 25.54401 53.01266 36181 ft 472 kts 278°
2026-05-08 09:12 25.55126 52.97721 36691 ft 471 kts 278°
2026-05-08 09:13 25.55893 52.94187 37195 ft 472 kts 281°
2026-05-08 09:13 25.56939 52.90716 37681 ft 476 kts 286°
2026-05-08 09:13 25.58262 52.87352 37843 ft 486 kts 291°
2026-05-08 09:13 25.59854 52.84072 37835 ft 481 kts 293°
2026-05-08 09:14 25.63059 52.77538 37835 ft 482 kts 292°
2026-05-08 09:14 25.66230 52.71013 37836 ft 483 kts 292°
2026-05-08 09:15 25.69424 52.64442 37837 ft 483 kts 292°
2026-05-08 09:15 25.72621 52.57858 37838 ft 483 kts 292°
2026-05-08 09:16 25.75787 52.51330 37844 ft 483 kts 292°
2026-05-08 09:16 25.78905 52.44723 37842 ft 482 kts 291°
2026-05-08 09:17 25.81970 52.38078 37835 ft 482 kts 291°
2026-05-08 09:17 25.85025 52.31476 37841 ft 482 kts 291°
2026-05-08 09:18 25.88081 52.24881 37853 ft 482 kts 291°
2026-05-08 09:18 25.91162 52.18232 37852 ft 482 kts 291°
2026-05-08 09:19 25.94233 52.11595 37849 ft 482 kts 291°
2026-05-08 09:19 25.97293 52.04972 37851 ft 482 kts 291°
2026-05-08 09:20 26.00348 51.98348 37855 ft 482 kts 291°
2026-05-08 09:20 26.03387 51.91750 37868 ft 481 kts 290°
2026-05-08 09:21 26.06433 51.85122 37866 ft 481 kts 290°
2026-05-08 09:23 26.17052 51.61977 37886 ft 478 kts 290°
2026-05-08 09:23 26.20059 51.55405 37887 ft 477 kts 290°
2026-05-08 09:24 26.23056 51.48845 37879 ft 477 kts 290°
2026-05-08 09:24 26.26061 51.42258 37879 ft 476 kts 290°
2026-05-08 09:25 26.29208 51.35743 37877 ft 482 kts 297°
2026-05-08 09:25 26.32718 51.29472 37876 ft 470 kts 285°
2026-05-08 09:25 26.33668 51.26040 37873 ft 458 kts 274°
2026-05-08 09:26 26.33944 51.22548 37869 ft 447 kts 262°
2026-05-08 09:26 26.33179 51.15723 37863 ft 441 kts 256°
2026-05-08 09:27 26.32193 51.09007 37860 ft 441 kts 256°
2026-05-08 09:27 26.31293 51.02225 37859 ft 441 kts 257°
2026-05-08 09:28 26.30429 50.95481 37862 ft 441 kts 257°
2026-05-08 09:28 26.29464 50.88726 37867 ft 440 kts 255°
2026-05-08 09:29 26.28399 50.82033 37865 ft 440 kts 255°
2026-05-08 09:29 26.27353 50.75347 37865 ft 440 kts 255°
2026-05-08 09:30 26.26467 50.68591 37865 ft 443 kts 260°
2026-05-08 09:30 26.26438 50.61667 37864 ft 450 kts 268°
2026-05-08 09:31 26.27238 50.54736 37853 ft 454 kts 272°
2026-05-08 09:31 26.28142 50.47769 37878 ft 454 kts 271°
2026-05-08 09:32 26.29035 50.40800 37866 ft 453 kts 271°
2026-05-08 09:32 26.29922 50.33873 37868 ft 453 kts 271°
2026-05-08 09:33 26.30867 50.26912 37859 ft 454 kts 272°
2026-05-08 09:33 26.31867 50.19946 37850 ft 453 kts 270°
2026-05-08 09:34 26.32238 50.13054 37861 ft 444 kts 262°
2026-05-08 09:34 26.32072 50.06168 37862 ft 444 kts 262°
2026-05-08 09:35 26.31933 49.99312 37864 ft 444 kts 262°
2026-05-08 09:35 26.31786 49.92421 37881 ft 444 kts 262°
2026-05-08 09:36 26.31633 49.85574 37898 ft 444 kts 262°
2026-05-08 09:36 26.31476 49.78694 37893 ft 443 kts 262°
2026-05-08 09:37 26.31317 49.71859 37885 ft 442 kts 262°
2026-05-08 09:37 26.31182 49.66145 37878 ft 442 kts 262°
2026-05-08 09:38 26.31016 49.59298 37890 ft 442 kts 262°
2026-05-08 09:38 26.30848 49.52472 37890 ft 442 kts 262°
2026-05-08 09:39 26.30676 49.45608 37885 ft 441 kts 262°
2026-05-08 09:39 26.30501 49.38798 37892 ft 441 kts 261°
2026-05-08 09:40 26.30321 49.31950 37905 ft 441 kts 261°
2026-05-08 09:40 26.30138 49.25108 37914 ft 441 kts 261°
2026-05-08 09:41 26.29954 49.18319 37907 ft 440 kts 261°
2026-05-08 09:41 26.29765 49.11496 37925 ft 440 kts 261°
2026-05-08 09:42 26.29324 49.04768 37941 ft 436 kts 258°
2026-05-08 09:42 26.28808 48.98030 37935 ft 436 kts 258°
2026-05-08 09:43 26.28294 48.91298 37924 ft 435 kts 258°
2026-05-08 09:43 26.27777 48.84610 37932 ft 435 kts 258°
2026-05-08 09:44 26.27256 48.77895 37936 ft 434 kts 258°
2026-05-08 09:44 26.26731 48.71187 37948 ft 434 kts 258°
2026-05-08 09:45 26.26206 48.64524 37942 ft 434 kts 258°
2026-05-08 09:45 26.25672 48.57809 37943 ft 433 kts 257°
2026-05-08 09:46 26.24628 48.51254 37950 ft 426 kts 250°
2026-05-08 09:46 26.22805 48.45059 37953 ft 421 kts 243°
2026-05-08 09:47 26.20404 48.39196 37595 ft 412 kts 241°
2026-05-08 09:47 26.19195 48.36297 37338 ft 413 kts 241°
2026-05-08 09:47 26.17985 48.33393 37081 ft 414 kts 241°
2026-05-08 09:47 26.16767 48.30475 36835 ft 415 kts 241°
2026-05-08 09:48 26.15548 48.27560 36594 ft 416 kts 241°
2026-05-08 09:48 26.14340 48.24674 36342 ft 417 kts 241°
2026-05-08 09:48 26.13097 48.21706 36066 ft 416 kts 241°
2026-05-08 09:48 26.11806 48.18882 35389 ft 416 kts 237°
2026-05-08 09:49 26.10263 48.16135 34200 ft 422 kts 232°
2026-05-08 09:49 26.08464 48.13535 33200 ft 423 kts 229°
2026-05-08 09:49 26.06571 48.11035 32615 ft 418 kts 229°
2026-05-08 09:49 26.04737 48.08567 32282 ft 408 kts 229°
2026-05-08 09:50 26.02949 48.06149 31824 ft 402 kts 229°
2026-05-08 09:50 26.01200 48.03785 31267 ft 399 kts 229°
2026-05-08 09:50 25.99441 48.01413 30730 ft 395 kts 229°
2026-05-08 09:50 25.97688 47.99054 30204 ft 392 kts 229°
2026-05-08 09:51 25.95955 47.96723 29610 ft 389 kts 230°
2026-05-08 09:51 25.94261 47.94446 29115 ft 384 kts 230°
2026-05-08 09:51 25.92565 47.92168 28609 ft 379 kts 230°
2026-05-08 09:51 25.90889 47.89918 28102 ft 375 kts 230°
2026-05-08 09:52 25.89234 47.87698 27605 ft 371 kts 230°
2026-05-08 09:52 25.87618 47.85530 27117 ft 367 kts 230°
2026-05-08 09:52 25.85993 47.83353 26626 ft 365 kts 230°
2026-05-08 09:52 25.84379 47.81190 26127 ft 362 kts 230°
2026-05-08 09:53 25.82772 47.79038 25635 ft 360 kts 230°
2026-05-08 09:53 25.81176 47.76901 25137 ft 359 kts 230°
2026-05-08 09:53 25.79580 47.74765 24648 ft 360 kts 230°
2026-05-08 09:53 25.77979 47.72624 24204 ft 364 kts 230°
2026-05-08 09:54 25.76319 47.70406 23924 ft 384 kts 230°
2026-05-08 09:54 25.74560 47.68057 23400 ft 401 kts 230°
2026-05-08 09:54 25.72772 47.65669 22738 ft 404 kts 230°
2026-05-08 09:54 25.70972 47.63266 21995 ft 405 kts 230°
2026-05-08 09:55 25.69187 47.60883 21443 ft 398 kts 230°
2026-05-08 09:55 25.67459 47.58571 20868 ft 391 kts 230°
2026-05-08 09:55 25.65734 47.56263 20283 ft 382 kts 230°
2026-05-08 09:55 25.64051 47.54013 19724 ft 375 kts 230°
2026-05-08 09:56 25.62415 47.51781 19161 ft 369 kts 233°
2026-05-08 09:56 25.61028 47.49397 18681 ft 366 kts 239°
2026-05-08 09:56 25.59839 47.46937 18272 ft 360 kts 240°
2026-05-08 09:56 25.58661 47.44540 17829 ft 357 kts 239°
2026-05-08 09:57 25.56273 47.39734 16991 ft 355 kts 239°
2026-05-08 09:57 25.55085 47.37342 16579 ft 352 kts 239°
2026-05-08 09:57 25.53908 47.34973 16172 ft 350 kts 239°
2026-05-08 09:58 25.52736 47.32614 15779 ft 349 kts 239°
2026-05-08 09:58 25.51568 47.30262 15337 ft 348 kts 239°
2026-05-08 09:58 25.50402 47.27917 14946 ft 347 kts 239°
2026-05-08 09:58 25.49253 47.25604 14551 ft 346 kts 239°
2026-05-08 09:59 25.48089 47.23263 14136 ft 345 kts 239°
2026-05-08 09:59 25.46930 47.20936 13721 ft 344 kts 239°
2026-05-08 09:59 25.45776 47.18618 13301 ft 343 kts 239°
2026-05-08 09:59 25.44622 47.16302 12888 ft 343 kts 239°
2026-05-08 10:00 25.43467 47.13987 12450 ft 342 kts 239°
2026-05-08 10:00 25.42336 47.11718 12059 ft 341 kts 239°
2026-05-08 10:00 25.41192 47.09425 11657 ft 340 kts 239°
2026-05-08 10:00 25.39989 47.07179 11251 ft 338 kts 232°
2026-05-08 10:01 25.38325 47.05370 10881 ft 335 kts 214°
2026-05-08 10:01 25.36301 47.04225 10719 ft 320 kts 200°
2026-05-08 10:01 25.34256 47.03398 10522 ft 305 kts 201°
2026-05-08 10:01 25.32312 47.02587 10265 ft 294 kts 197°
2026-05-08 10:02 25.30289 47.02349 10127 ft 297 kts 172°
2026-05-08 10:02 25.28341 47.03086 9935 ft 297 kts 147°
2026-05-08 10:02 25.26886 47.04642 9787 ft 296 kts 122°
2026-05-08 10:02 25.26046 47.06710 9623 ft 295 kts 109°
2026-05-08 10:03 25.25370 47.08853 9481 ft 294 kts 108°
2026-05-08 10:03 25.24688 47.10982 9320 ft 293 kts 111°
2026-05-08 10:03 25.23605 47.12873 9173 ft 294 kts 133°
2026-05-08 10:03 25.21959 47.14216 9015 ft 293 kts 151°
2026-05-08 10:04 25.20159 47.15308 8866 ft 295 kts 150°
2026-05-08 10:04 25.18399 47.16406 8717 ft 293 kts 150°
2026-05-08 10:04 25.16625 47.17522 8553 ft 292 kts 149°
2026-05-08 10:04 25.14857 47.18637 8404 ft 292 kts 150°
2026-05-08 10:05 25.13098 47.19742 8246 ft 288 kts 149°
2026-05-08 10:05 25.11357 47.20833 8113 ft 287 kts 149°
2026-05-08 10:05 25.09641 47.21906 7964 ft 287 kts 150°
2026-05-08 10:05 25.07888 47.22983 7803 ft 286 kts 154°
2026-05-08 10:06 25.05957 47.23474 7678 ft 288 kts 180°
2026-05-08 10:06 25.04019 47.22988 7510 ft 289 kts 206°
2026-05-08 10:06 25.02445 47.21599 7376 ft 292 kts 232°
2026-05-08 10:06 25.01402 47.19693 7223 ft 290 kts 242°
2026-05-08 10:07 25.00485 47.17711 7082 ft 290 kts 243°
2026-05-08 10:07 24.99567 47.15758 6930 ft 293 kts 241°
2026-05-08 10:07 24.98590 47.13776 6771 ft 293 kts 240°
2026-05-08 10:07 24.97594 47.11816 6623 ft 293 kts 240°
2026-05-08 10:08 24.96588 47.09867 6498 ft 291 kts 240°
2026-05-08 10:08 24.95592 47.07948 6455 ft 283 kts 240°
2026-05-08 10:08 24.94634 47.06101 6347 ft 272 kts 242°
2026-05-08 10:08 24.94135 47.04162 6231 ft 259 kts 271°
2026-05-08 10:09 24.94527 47.02305 6194 ft 243 kts 300°
2026-05-08 10:09 24.95617 47.01012 6074 ft 228 kts 331°
2026-05-08 10:09 24.96980 47.00224 5960 ft 215 kts 335°
2026-05-08 10:09 24.98274 46.99447 5411 ft 211 kts 334°
2026-05-08 10:10 24.99552 46.98652 5090 ft 209 kts 333°
2026-05-08 10:10 25.00796 46.97872 4994 ft 209 kts 334°
2026-05-08 10:10 25.01949 46.96861 4959 ft 217 kts 308°
2026-05-08 10:10 25.02449 46.95278 4868 ft 224 kts 273°
2026-05-08 10:11 25.02111 46.93620 4617 ft 222 kts 243°
2026-05-08 10:11 25.01303 46.92210 4374 ft 219 kts 234°
2026-05-08 10:11 25.00395 46.90844 4139 ft 221 kts 234°
2026-05-08 10:11 24.99529 46.89459 4006 ft 216 kts 236°
2026-05-08 10:12 24.98735 46.88079 4000 ft 215 kts 238°
2026-05-08 10:12 24.97869 46.86737 3970 ft 214 kts 219°
2026-05-08 10:12 24.96596 46.86082 3971 ft 200 kts 180°
2026-05-08 10:12 24.95305 46.86387 3985 ft 185 kts 144°
2026-05-08 10:13 24.94229 46.87170 3972 ft 185 kts 144°
2026-05-08 10:13 24.93126 46.87913 3994 ft 189 kts 147°
2026-05-08 10:13 24.91979 46.88645 3996 ft 190 kts 148°
2026-05-08 10:13 24.90838 46.89354 4002 ft 182 kts 147°
2026-05-08 10:14 24.89762 46.90020 3992 ft 175 kts 146°
2026-05-08 10:14 24.88704 46.90684 3995 ft 171 kts 147°
2026-05-08 10:14 24.87728 46.91291 3980 ft 158 kts 149°
2026-05-08 10:14 24.86670 46.91497 3985 ft 157 kts 186°
2026-05-08 10:15 24.85675 46.91075 3987 ft 151 kts 202°
2026-05-08 10:15 24.84685 46.90625 3971 ft 154 kts 198°
2026-05-08 10:15 24.83689 46.90199 3995 ft 154 kts 198°
2026-05-08 10:15 24.82687 46.89777 3985 ft 153 kts 197°
2026-05-08 10:16 24.81676 46.89351 3991 ft 155 kts 198°
2026-05-08 10:16 24.80695 46.88929 3975 ft 155 kts 197°
2026-05-08 10:16 24.79699 46.88501 3986 ft 153 kts 198°
2026-05-08 10:16 24.78869 46.87795 3989 ft 160 kts 234°
2026-05-08 10:17 24.78389 46.86681 3969 ft 159 kts 244°
2026-05-08 10:17 24.77915 46.85560 3993 ft 162 kts 243°